FW5890 Weather Reports


Display with metric or nautical units.
time (UTC)temp
F
wind
direction
speed
MPH
gust
MPH
rain 1hr
in
rain 24hr
in
rain mn
in
humidity
%
barometer
mb
20260505092530 39 360 0.0 4.0 0.00 0.00 0.00 67 1007.9
20260505092110 39 360 0.0 4.0 0.00 0.00 0.00 67 1007.9
20260505091553 39 57 0.0 4.0 0.00 0.00 0.00 66 1007.9
20260505091103 40 360 1.0 4.0 0.00 0.00 0.00 66 1007.7
20260505090538 40 360 0.0 8.0 0.00 0.00 0.00 66 1007.7
20260505090059 40 360 2.0 8.0 0.00 0.00 0.00 66 1007.7
20260505085532 39 360 1.0 5.0 0.00 0.00 0.00 66 1007.6
20260505085052 39 277 1.0 5.0 0.00 0.00 0.00 67 1007.6
20260505084528 40 318 0.0 3.0 0.00 0.00 0.00 67 1007.5
20260505084045 40 298 0.0 3.0 0.00 0.00 0.00 67 1007.4
20260505083522 40 284 0.0 3.0 0.00 0.00 0.00 68 1007.3
20260505083109 40 284 0.0 3.0 0.00 0.00 0.00 66 1007.3
20260505082530 40 296 0.0 3.0 0.00 0.00 0.00 66 1007.1
20260505082010 40 360 0.0 4.0 0.00 0.00 0.00 66 1007.2
20260505081546 40 360 0.0 4.0 0.00 0.00 0.00 65 1007.1
20260505081024 40 360 0.0 4.0 0.00 0.00 0.00 65 1007.1
20260505080540 40 317 0.0 2.0 0.00 0.00 0.00 66 1007.1
20260505080018 40 309 0.0 4.0 0.00 0.00 0.00 66 1007.0
20260505075503 40 360 0.0 3.0 0.00 0.00 0.00 65 1007.0
20260505075026 40 360 0.0 5.0 0.00 0.00 0.00 66 1006.9
20260505074544 40 360 0.0 5.0 0.00 0.00 0.00 65 1006.8
20260505074018 40 283 1.0 3.0 0.00 0.00 0.00 66 1006.9
20260505073559 40 236 0.0 2.0 0.00 0.00 0.00 66 1006.9
20260505073032 40 360 0.0 2.0 0.00 0.00 0.00 65 1006.8
20260505072552 40 236 0.0 2.0 0.00 0.00 0.00 66 1006.8
20260505072015 40 243 0.0 2.0 0.00 0.00 0.00 65 1006.8
20260505071544 41 242 0.0 1.0 0.00 0.00 0.00 66 1006.9
20260505071104 41 360 0.0 2.0 0.00 0.00 0.00 65 1006.9
20260505070548 41 360 0.0 2.0 0.00 0.00 0.00 65 1006.9
20260505065516 41 242 0.0 2.0 0.00 0.00 0.00 64 1007.0
20260505065035 41 242 0.0 2.0 0.00 0.00 0.00 64 1007.0
20260505064515 41 360 0.0 1.0 0.00 0.00 0.00 63 1007.1
20260505064054 42 242 0.0 3.0 0.00 0.00 0.00 63 1006.9
20260505063535 42 242 0.0 3.0 0.00 0.00 0.00 63 1006.8
20260505063004 42 240 0.0 5.0 0.00 0.00 0.00 63 1007.0
20260505062526 42 360 0.0 5.0 0.00 0.00 0.00 62 1006.9
20260505062046 42 98 0.0 2.0 0.00 0.00 0.00 62 1006.9
20260505061607 42 251 0.0 2.0 0.00 0.00 0.00 62 1007.0
20260505061021 42 251 0.0 2.0 0.00 0.00 0.00 62 1006.9
20260505060613 43 244 0.0 2.0 0.00 0.00 0.00 61 1006.9
20260505060023 43 257 0.0 2.0 0.00 0.00 0.00 61 1007.0
20260505055507 43 230 0.0 2.0 0.00 0.00 0.00 61 1006.9
20260505055053 43 181 0.0 4.0 0.00 0.00 0.00 61 1006.8
20260505054525 43 53 0.0 4.0 0.00 0.00 0.00 61 1006.8
20260505054039 43 315 1.0 4.0 0.00 0.00 0.00 61 1006.8
20260505053516 44 360 0.0 4.0 0.00 0.00 0.00 61 1006.8
20260505053034 44 360 2.0 4.0 0.00 0.00 0.00 61 1006.8
20260505052505 44 360 0.0 4.0 0.00 0.00 0.00 61 1006.7
20260505052037 44 360 0.0 4.0 0.00 0.00 0.00 61 1006.6
20260505051604 44 323 1.0 3.0 0.00 0.00 0.00 61 1006.6
20260505051022 44 360 0.0 4.0 0.00 0.00 0.00 60 1006.6
20260505050542 44 327 0.0 4.0 0.00 0.00 0.00 60 1006.5
20260505041533 44 327 2.0 4.0 0.00 0.00 0.00 57 1006.4
20260505041017 44 330 0.0 2.0 0.00 0.00 0.00 56 1006.4
20260505040503 45 333 0.0 3.0 0.00 0.00 0.00 56 1006.4
20260505040058 45 332 1.0 5.0 0.00 0.00 0.00 56 1006.5
20260505035501 45 338 1.0 5.0 0.00 0.00 0.00 56 1006.4
20260505035048 45 360 1.0 3.0 0.00 0.00 0.00 55 1006.3
20260505034507 45 360 0.0 3.0 0.00 0.00 0.00 55 1006.3
20260505034036 45 360 1.0 4.0 0.00 0.00 0.00 54 1006.3
20260505033627 45 360 1.0 4.0 0.00 0.00 0.00 53 1006.3
20260505033102 45 360 1.0 5.0 0.00 0.00 0.00 54 1006.3
20260505032516 45 360 0.0 3.0 0.00 0.00 0.00 54 1006.3
20260505032056 46 360 0.0 4.0 0.00 0.00 0.00 54 1006.3
20260505031533 46 360 1.0 4.0 0.00 0.00 0.00 54 1006.3
20260505031011 46 360 0.0 4.0 0.00 0.00 0.00 54 1006.3
20260505030605 46 360 0.0 4.0 0.00 0.00 0.00 55 1006.3
20260505030047 46 360 0.0 4.0 0.00 0.00 0.00 54 1006.3
20260505025609 46 360 1.0 4.0 0.00 0.00 0.00 53 1006.2
20260505025048 46 360 1.0 4.0 0.00 0.00 0.00 52 1006.2
20260505024517 46 360 1.0 4.0 0.00 0.00 0.00 53 1006.1
20260505024100 46 360 1.0 3.0 0.00 0.00 0.00 53 1006.1
20260505023538 46 360 0.0 3.0 0.00 0.00 0.00 53 1006.0
20260505023058 46 360 0.0 3.0 0.00 0.00 0.00 52 1005.9
20260505022545 47 360 0.0 2.0 0.00 0.00 0.00 52 1005.9
20260505022032 47 360 0.0 4.0 0.00 0.00 0.00 52 1005.8
20260505021524 47 360 1.0 4.0 0.00 0.00 0.00 51 1005.8
20260505021051 47 360 1.0 6.0 0.00 0.00 0.00 51 1005.7
20260505020526 47 360 0.0 6.0 0.00 0.00 0.00 51 1005.6
20260505020110 47 360 0.0 3.0 0.00 0.00 0.00 52 1005.6
20260505015544 47 360 0.0 3.0 0.00 0.00 0.00 51 1005.5
20260505015034 47 360 0.0 4.0 0.00 0.00 0.00 51 1005.4
20260505014520 48 360 1.0 6.0 0.00 0.00 0.00 49 1005.4
20260505014008 48 360 2.0 6.0 0.00 0.00 0.00 49 1005.4
20260505013536 48 360 1.0 5.0 0.00 0.00 0.00 49 1005.3
20260505013017 48 360 2.0 8.0 0.00 0.00 0.00 50 1005.2
20260505012600 49 360 0.0 8.0 0.00 0.00 0.00 50 1005.1
20260505012038 49 360 1.0 9.0 0.00 0.00 0.00 50 1005.0
20260505011515 49 360 2.0 9.0 0.00 0.00 0.00 48 1004.8
20260505011101 49 360 1.0 8.0 0.00 0.00 0.00 50 1004.8
20260505010521 50 360 2.0 10.0 0.00 0.00 0.00 49 1004.6
20260505010057 50 360 4.0 10.0 0.00 0.00 0.00 48 1004.5
20260505005601 50 360 2.0 10.0 0.00 0.00 0.00 48 1004.3
20260505005033 51 360 2.0 8.0 0.00 0.00 0.00 48 1004.2
20260505004612 51 46 1.0 4.0 0.00 0.00 0.00 47 1004.2
20260505004002 51 76 1.0 4.0 0.00 0.00 0.00 47 1004.1
20260505003527 52 154 2.0 8.0 0.00 0.00 0.00 47 1003.9
20260505003015 52 338 3.0 8.0 0.00 0.00 0.00 46 1003.9
20260505002606 52 301 2.0 14.0 0.00 0.00 0.00 45 1003.7
20260505002013 52 326 3.0 14.0 0.00 0.00 0.00 46 1003.8
20260505001549 52 323 3.0 11.0 0.00 0.00 0.00 47 1003.7
20260505001012 52 295 1.0 11.0 0.00 0.00 0.00 46 1003.6
20260505000551 52 287 3.0 11.0 0.00 0.00 0.00 46 1003.6
20260505000003 52 80 2.0 8.0 0.00 0.00 0.00 47 1003.5
20260504235521 52 212 3.0 12.0 0.00 0.00 0.00 46 1003.4
20260504235041 52 211 3.0 12.0 0.00 0.00 0.00 46 1003.4
20260504234519 53 298 3.0 14.0 0.00 0.00 0.00 45 1003.4
20260504234058 53 288 3.0 14.0 0.00 0.00 0.00 46 1003.3
20260504233509 53 298 2.0 6.0 0.00 0.00 0.00 46 1003.3
20260504233047 53 244 2.0 12.0 0.00 0.00 0.00 45 1003.3
20260504232503 54 50 3.0 10.0 0.00 0.00 0.00 45 1003.1
20260504232046 54 228 3.0 10.0 0.00 0.00 0.00 44 1003.0
20260504231627 54 263 3.0 10.0 0.00 0.00 0.00 45 1003.0
20260504231032 54 313 3.0 15.0 0.00 0.00 0.00 45 1003.0
20260504230601 54 265 4.0 15.0 0.00 0.00 0.00 45 1002.8
20260504230036 54 298 4.0 11.0 0.00 0.00 0.00 45 1002.7
20260504225558 54 27 2.0 11.0 0.00 0.00 0.00 45 1002.7
20260504225020 55 150 2.0 11.0 0.00 0.00 0.00 44 1002.7
20260504224549 55 180 3.0 10.0 0.00 0.00 0.00 43 1002.7
20260504224025 56 344 4.0 10.0 0.00 0.00 0.00 43 1002.5
20260504223603 56 339 3.0 10.0 0.00 0.00 0.00 44 1002.4
20260504223013 57 207 2.0 16.0 0.00 0.00 0.00 45 1002.3
20260504222534 57 238 2.0 16.0 0.00 0.00 0.00 45 1002.2
20260504222017 57 41 2.0 13.0 0.00 0.00 0.00 45 1002.0
20260504221623 57 17 6.0 12.0 0.00 0.00 0.00 43 1002.0
20260504221027 57 244 4.0 9.0 0.00 0.00 0.00 44 1001.8
20260504220605 57 293 3.0 9.0 0.00 0.00 0.00 45 1001.7
20260504220015 57 242 5.0 10.0 0.00 0.00 0.00 44 1001.6
20260504215539 57 65 2.0 14.0 0.00 0.00 0.00 44 1001.6
20260504215008 58 290 5.0 13.0 0.00 0.00 0.00 44 1001.6
20260504214550 57 291 5.0 11.0 0.00 0.00 0.00 44 1001.5
20260504214018 58 213 2.0 13.0 0.00 0.00 0.00 45 1001.4
20260504213554 58 290 3.0 13.0 0.00 0.00 0.00 44 1001.1
20260504213030 59 114 3.0 15.0 0.00 0.00 0.00 44 1001.2
20260504212533 59 293 6.0 15.0 0.00 0.00 0.00 42 1001.1
20260504212053 59 271 5.0 17.0 0.00 0.00 0.00 44 1001.1
20260504211502 60 321 7.0 16.0 0.00 0.00 0.00 42 1001.1
20260504211023 59 331 5.0 13.0 0.00 0.00 0.00 43 1001.0
20260504210505 60 333 5.0 13.0 0.00 0.00 0.00 42 1000.9
20260504210046 60 38 5.0 11.0 0.00 0.00 0.00 44 1001.1
20260504205607 59 242 3.0 17.0 0.00 0.00 0.00 43 1000.8
20260504205019 61 323 4.0 10.0 0.00 0.00 0.00 41 1000.8
20260504204556 61 288 4.0 11.0 0.00 0.00 0.00 44 1000.7
20260504204005 61 296 4.0 14.0 0.00 0.00 0.00 43 1000.7
20260504203525 60 320 4.0 14.0 0.00 0.00 0.00 44 1000.7
20260504203046 60 348 2.0 14.0 0.00 0.00 0.00 44 1000.6
20260504202519 60 323 5.0 11.0 0.00 0.00 0.00 44 1000.6
20260504202006 61 53 3.0 14.0 0.00 0.00 0.00 44 1000.5
20260504201534 61 323 4.0 14.0 0.00 0.00 0.00 46 1000.6
20260504201055 61 188 4.0 10.0 0.00 0.00 0.00 44 1000.5
20260504200505 61 266 2.0 15.0 0.00 0.00 0.00 44 1000.4
20260504200136 61 317 5.0 13.0 0.00 0.00 0.00 41 1000.4
20260504195600 62 338 4.0 10.0 0.00 0.00 0.00 45 1000.3
20260504195019 61 309 2.0 15.0 0.00 0.00 0.00 48 1000.3
20260504194546 60 336 5.0 14.0 0.00 0.00 0.00 44 1000.2
20260504194004 60 321 4.0 14.0 0.00 0.00 0.00 45 1000.3
20260504193532 60 304 4.0 14.0 0.00 0.00 0.00 42 1000.3
20260504193053 61 340 3.0 10.0 0.00 0.00 0.00 42 1000.1
20260504192525 61 298 3.0 12.0 0.00 0.00 0.00 44 1000.1
20260504192047 60 311 5.0 15.0 0.00 0.00 0.00 44 1000.1
20260504191624 60 329 5.0 14.0 0.00 0.00 0.00 44 999.8
20260504191015 60 293 4.0 14.0 0.00 0.00 0.00 45 999.9
20260504190559 60 304 8.0 16.0 0.00 0.00 0.00 43 999.8
20260504190031 60 348 7.0 16.0 0.00 0.00 0.00 43 999.9
20260504185505 60 293 7.0 19.0 0.00 0.00 0.00 43 999.8
20260504185025 60 19 8.0 19.0 0.00 0.00 0.00 43 999.7
20260504184609 60 333 3.0 13.0 0.00 0.00 0.00 45 999.6
20260504184047 59 325 6.0 13.0 0.00 0.00 0.00 43 999.7
20260504183607 59 325 6.0 12.0 0.00 0.00 0.00 43 999.8
20260504183019 60 310 2.0 10.0 0.00 0.00 0.00 44 999.6
20260504182538 60 299 2.0 7.0 0.00 0.00 0.00 42 999.5
20260504182059 61 80 2.0 13.0 0.00 0.00 0.00 39 999.4
20260504181515 60 336 5.0 13.0 0.00 0.00 0.00 41 999.4
20260504181101 60 281 5.0 13.0 0.00 0.00 0.00 41 999.3
20260504180533 61 344 4.0 17.0 0.00 0.00 0.00 40 999.1
20260504180011 61 330 5.0 17.0 0.00 0.00 0.00 39 999.0
20260504175538 61 316 5.0 17.0 0.00 0.00 0.00 40 998.8
20260504175106 61 338 7.0 17.0 0.00 0.00 0.00 40 998.8
20260504174532 61 164 2.0 16.0 0.00 0.00 0.00 45 998.7
20260504174101 62 327 7.0 16.0 0.00 0.00 0.00 42 998.7
20260504173517 62 340 3.0 18.0 0.00 0.00 0.00 44 998.8
20260504173039 62 345 5.0 18.0 0.00 0.00 0.00 43 998.7
20260504172515 62 5 5.0 19.0 0.00 0.00 0.00 44 998.7
20260504172056 62 332 6.0 16.0 0.00 0.00 0.00 44 998.6
20260504171542 62 346 5.0 16.0 0.00 0.00 0.00 45 998.5
20260504171026 62 282 4.0 12.0 0.00 0.00 0.00 44 998.6
20260504170556 62 310 3.0 10.0 0.00 0.00 0.00 45 998.4
20260504151015 61 160 4.0 10.0 0.00 0.00 0.00 47 998.2
20260504150539 61 236 2.0 9.0 0.00 0.00 0.00 47 998.1
20260504141040 61 144 1.0 9.0 0.00 0.00 0.00 45 997.8
20260504140532 61 11 2.0 12.0 0.00 0.00 0.00 44 997.7
20260504140103 61 47 3.0 12.0 0.00 0.00 0.00 42 997.5
20260504130558 60 346 4.0 14.0 0.00 0.00 0.00 53 996.8
20260504110534 58 326 6.0 14.0 0.00 0.00 0.00 48 995.6
20260504100503 57 293 3.0 12.0 0.00 0.00 0.00 49 996.2